Weather History for Fayetteville, AR

Change the Weather History Date:

Sunday, November 4, 2012

  Actual Average Record
Temperature  
Mean Temperature 49 °F 52 °F  
Max Temperature 68 °F 64 °F 82 °F (1978)
Min Temperature 32 °F 40 °F 14 °F (1952)
Degree Days  
Heating Degree Days 16 13  
Month to date heating degree days 50  
Since 1 July heating degree days 350  
Moisture  
Dew Point 37 °F    
Average Humidity 69    
Maximum Humidity 100    
Minimum Humidity 32    
Precipitation  
Precipitation 0.00 in 0.14 in 2.70 in (1959)
Month to date precipitation 0.57  
Year to date precipitation 41.61  
Sea Level Pressure  
Sea Level Pressure 30.15 in    
Wind  
Wind Speed 1 mph (North)    
Max Wind Speed 5 mph    
Max Gust Speed -    
Visibility 10 miles    
Events      
T = Trace of Precipitation, MM = Missing Value Source: NWS Daily Summary

Daily Weather History Graph

Daily Weather History Graph

Search for Another Location

Airport:

Trip Planner

Search our weather history database for the weather conditions in past years. The results will help you decide how hot, cold, wet, or windy it might be!

Date:

Astronomy

Nov. 04, 2012 Rise Set
Actual Time 6:42 AM CST 5:17 PM CST
Civil Twilight 6:15 AM CST 5:44 PM CST
Nautical Twilight 5:45 AM CST 6:14 PM CST
Astronomical Twilight 5:15 AM CST 6:44 PM CST
Moon 9:57 PM CST (11/4) 11:24 AM CST (11/4)
Length of Visible Light 11h 28m
Length of Day
10h 34m
Waning Gibbous, 72% of the Moon is Illuminated
Nov 4
Waning Gibbous
Nov 6
Last Quarter
Nov 13
New
Nov 20
First Quarter
Nov 28
Full

Hourly Weather History & Observations

Time (CST) Temp. Windchill Dew Point Humidity Pressure Visibility Wind Dir Wind Speed Gust Speed Precip Events Conditions
12:53 AM 41.0 °F - 35.1 °F 79% 30.17 in 10.0 mi Calm Calm - N/A   Clear
1:53 AM 44.1 °F - 37.0 °F 76% 30.17 in 10.0 mi Calm Calm - N/A   Clear
1:53 AM 42.1 °F 40.2 °F 37.0 °F 82% 30.17 in 10.0 mi North 3.5 mph - N/A   Clear
2:53 AM 37.9 °F - 36.0 °F 93% 30.19 in 10.0 mi Calm Calm - N/A   Clear
3:53 AM 36.0 °F - 35.1 °F 97% 30.20 in 8.0 mi Calm Calm - N/A   Clear
4:53 AM 35.1 °F - 34.0 °F 96% 30.20 in 7.0 mi Calm Calm - N/A   Clear
5:53 AM 33.1 °F - 33.1 °F 100% 30.21 in 6.0 mi Calm Calm - N/A   Clear
6:53 AM 32.0 °F - 30.9 °F 96% 30.21 in 7.0 mi Calm Calm - N/A   Clear
7:53 AM 37.9 °F - 36.0 °F 93% 30.21 in 10.0 mi Calm Calm - N/A   Clear
8:53 AM 46.0 °F - 39.0 °F 76% 30.21 in 10.0 mi Calm Calm - N/A   Clear
9:53 AM 51.1 °F - 39.0 °F 63% 30.22 in 10.0 mi Calm Calm - N/A   Clear
10:53 AM 59.0 °F - 37.9 °F 46% 30.20 in 10.0 mi NE 4.6 mph - N/A   Clear
11:53 AM 63.0 °F - 37.0 °F 38% 30.17 in 10.0 mi Variable 3.5 mph - N/A   Clear
12:53 PM 64.9 °F - 37.9 °F 37% 30.13 in 10.0 mi North 3.5 mph - N/A   Clear
1:53 PM 66.9 °F - 37.0 °F 33% 30.11 in 10.0 mi Variable 3.5 mph - N/A   Clear
2:53 PM 66.0 °F - 36.0 °F 33% 30.10 in 10.0 mi Calm Calm - N/A   Clear
3:53 PM 66.9 °F - 36.0 °F 32% 30.09 in 10.0 mi Calm Calm - N/A   Clear
4:53 PM 61.0 °F - 42.1 °F 50% 30.09 in 10.0 mi Calm Calm - N/A   Clear
5:53 PM 53.1 °F - 39.0 °F 59% 30.10 in 10.0 mi Calm Calm - N/A   Clear
6:53 PM 48.0 °F - 37.9 °F 68% 30.12 in 10.0 mi Calm Calm - N/A   Clear
7:53 PM 44.1 °F - 37.9 °F 79% 30.11 in 10.0 mi Calm Calm - N/A   Clear
8:53 PM 42.1 °F - 36.0 °F 79% 30.12 in 10.0 mi Calm Calm - N/A   Clear
9:53 PM 41.0 °F - 35.1 °F 79% 30.11 in 10.0 mi Calm Calm - N/A   Clear
10:53 PM 48.0 °F - 37.0 °F 66% 30.09 in 10.0 mi Calm Calm - N/A   Clear